{"data":{"norad_id":45183,"intl_designator":"2020-012F","name":"STARLINK-1202","alt_names":[],"object_type":"PAYLOAD","status":"ACTIVE","operator":null,"country":"US","launch_date":"2020-02-17","launch_site_code":"AFETR","launch_vehicle":null,"mission":null,"orbit_class":"UNKNOWN","rcs_meters":null,"size_class":null,"mass_kg":null,"dimensions":null,"purposes":["comms"],"wikipedia_slug":null,"has_3d_model":false,"image_url":null,"decayed_at":null,"tle_current":{"epoch":"2026-05-25T03:00:02.820096Z","epoch_age_seconds":60714,"freshness":"FRESH","line1":"1 45183U 20012F   26145.12503264  .00036868  00000+0  11312-2 0  9997","line2":"2 45183  53.1567  43.6911 0002761 118.1851 241.9430 15.33422970346669","mean_motion":15.3342297,"eccentricity":0.0002761,"inclination_deg":53.1567,"raan_deg":43.6911,"arg_perigee_deg":118.1851,"mean_anomaly_deg":241.943,"bstar":0.0011312,"rev_number":34666,"period_min":93.907553765156,"perigee_km":463.71916284985,"apogee_km":467.49827923701,"semimajor_km":6843.7457210434,"source":"CELESTRAK","updated_at":"2026-05-25T13:38:16.381497Z"}}}